Voltar ao catálogo

STARLINK-31132

AtivoComunicaçõesVLEO
NORAD 58777·PAYLOAD·🇺🇸 United States

Lançado Jan 14, 2024 de Vandenberg Space Force Base

Loading…

Próximas Passagens (próximas 24 horas)

TLE

AtualizadoSource: CelesTrak SupGP

Época: Sep 15, 2026, 02:23 UTC

1 58777C 24011N   26258.09979167  .00044273  00000+0  14236-2 0  2588
2 58777  53.1563 122.2498 0001309  84.1044 137.2644 15.31680986    16

Acompanhe STARLINK-31132 em tempo real com AllMySat

Download on the App Store